Regional Weather Roundup
Issued by NWS Mobile, AL

Home | Current Version | Previous Version | Text Only | Print | Product List | Glossary On
Versions: 1 2 3 4 5 6 7 8 9 10 11 12 13 14 15 16 17 18 19 20 21 22 23 24 25 26 27 28 29 30 31 32 33 34 35 36 37 38 39 40 41 42 43 44 45 46 47 48 49 50
000
ASUS44 KMOB 261412
RWRMOB
REGIONAL WEATHER ROUNDUP
NATIONAL WEATHER SERVICE MOBILE AL
900 AM CDT MON JUN 26 2017

NOTE: "FAIR" INDICATES FEW OR NO CLOUDS BELOW 12,000 FEET WITH NO
      SIGNIFICANT WEATHER AND/OR OBSTRUCTIONS TO VISIBILITY.

  * THESE STATIONS ARE PART OF THE UNIVERSITY OF SOUTH ALABAMA
    MESONET AND ARE NOT UNDER NWS OR FAA QUALITY CONTROL.

ALZ061>064-261500-
COASTAL ALABAMA

CITY           SKY/WX    TMP DP  RH WIND       PRES   REMARKS
MOBILE REG APT PTSUNNY   77  63  61 NE9       30.14F
BROOKLEY FIELD   N/A     77  65  66 MISG      30.14S
USA CAMPUS*      N/A     77  64  65 E3        30.14S
DOG RIVER*       N/A     77  64  65 NE3       30.92S


CITY           SKY/WX    TMP DP  RH WIND       PRES   REMARKS
GULF SHORES    MOSUNNY   76  64  65 NE6       30.12S

$$

ALZ051>060-261500-
INTERIOR SOUTHWEST AND SOUTH CENTRAL ALABAMA

CITY           SKY/WX    TMP DP  RH WIND       PRES   REMARKS
GREENVILLE     SUNNY     74  59  59 NE6       30.15S
EVERGREEN      SUNNY     76  62  62 N7        30.15S
ATMORE*        NOT AVBL
ANDALUSIA/OPP  SUNNY     79  60  52 N8        30.14S
ANDALUSIA*     NOT AVBL
FLORALA APT    SUNNY     77  62  59 N8        30.14F
FLORALA*         N/A     75  64  69 CALM      30.85F

$$

FLZ001>006-261500-
WESTERN FLORIDA PANHANDLE

CITY           SKY/WX    TMP DP  RH WIND       PRES   REMARKS
PENSACOLA      MOSUNNY   78  62  57 N9        30.12F
NAS PENSACOLA  PTSUNNY   79  61  53 NE10      30.10F
MILTON         MOSUNNY   76  64  66 NE6       30.13S
WHTNG S FIELD  MOSUNNY   79  65  62 NE8       30.12F


CITY           SKY/WX    TMP DP  RH WIND       PRES   REMARKS
JAY*             N/A     73  63  68 N7        30.14F
DUKE FIELD     MOSUNNY   76  62  60 N8        30.13S
CRESTVIEW      SUNNY     78  63  59 NE5       30.14S
VALPARAISO     MOSUNNY   77  63  61 NE10      30.12S
DESTIN         CLOUDY    80  71  74 VRB7      30.11S

$$

MSZ076-079-261500-
INTERIOR SOUTHEAST MISSISSIPPI

CITY           SKY/WX    TMP DP  RH WIND       PRES   REMARKS
LEAKESVILLE*   NOT AVBL
AGRICOLA*        N/A     75  64  69 NE6       30.14R

$$

MARINE OBSERVATIONS

STATION/POSITION TIME  TEMP    WIND        PRES    WAVE
                       AIR SEA DIR/SP/G            HT/PER
                 (UTC) (F)     (DEG/KT/KT) (MB)    (FT/S)
PASCAGOULA       1342   77      40/  8/ 12 1020.1R
PETIT BOIS ISLND 1342   76      50/ 12/ 16 1020.9R
GRAND BAY        1245   74      40/  8     1021.0S
KATRINA CUT      1330   77      60/ 15     1020.0R
CEDAR POINT      1330   76      60/ 12     1020.0S
E DAUPHIN ISLAND 1300   76      40/ 14/ 15 1019.6R
MIDDLE BAY LIGHT 1330   77      20/ 12     1020.0F
USCG MOBILE BAY  1348   75 80   40/  9/ 11 1021.1S
STATE DOCKS      1342   79 80              1020.5F
MEAHER PARK      1330   73      20/  6     1020.6S
FORT MORGAN      1348   76      60/ 12/ 14   N/A
12 S ORANGE BCH  1250   77 81   50/ 16/ 17 1019.1R   2/ 4
PENSACOLA BAY    1342   76 81              1020.0F
64 S DAUPHIN ISL 1350   80 83   70/ 12/ 14 1019.1R   2/ 5
67 S FORT MORGAN 1330   79      50/ 12     1019.0R

$$

SELECTED LOCATIONS ACROSS THE REGION

CITY           SKY/WX    TMP DP  RH WIND       PRES   REMARKS
NEW ORLEANS    PTSUNNY   79  69  71 NE8       30.12S
GULFPORT       PTSUNNY   79  64  60 NE7       30.13R
PASCAGOULA AP  SUNNY     78  63  59 NE7       30.13R
PASCAGOULA*    NOT AVBL
HATTIESBURG    CLOUDY    73  62  68 NE5       30.18R
LAUREL         CLOUDY    73  63  68 NE7       30.19S
MERIDIAN       MOSUNNY   77  64  64 NE7       30.18F
JACKSON        SUNNY     75  63  66 NE9       30.18S
MONTGOMERY     CLOUDY    75  58  55 N8        30.16S
TROY           CLOUDY    74  61  63 NE8       30.16R
ASHFORD*       NOT AVBL
DOTHAN         SUNNY     75  65  70 NE7       30.16R
PANAMA CITY    CLOUDY    76  66  71 N7        30.10S

$$




USA.gov is the U.S. government's official web portal to all federal, state and local government web resources and services.